Regional Weather Roundup
Issued by NWS

Home | Current Version | Previous Version | Graphics & Text | Print | Product List | Glossary On
Versions: 1 2 3 4 5 6 7 8 9 10 11 12 13 14 15 16 17 18 19 20 21 22 23 24 25 26 27 28 29 30 31 32 33 34 35 36 37 38 39 40 41 42 43 44 45 46 47 48 49 50
000
ASUS43 KMKX 031813
RWRWI

WISCONSIN REGIONAL WEATHER ROUNDUP
NATIONAL WEATHER SERVICE MILWAUKEE/SULLIVAN WI
100 PM CDT WED JUN 03 2015

NOTE: "FAIR" INDICATES FEW OR NO CLOUDS BELOW 12,000 FEET WITH NO
SIGNIFICANT WEATHER AND/OR OBSTRUCTIONS TO VISIBILITY.

WIZ001-002-006>008-014>016-023>028-031900-
NORTHWEST WISCONSIN

CITY           SKY/WX    TMP DP  RH WIND       PRES   REMARKS
SUPERIOR ARPT  CLOUDY    53  51  92 NE6       29.88S
ASHLAND        CLOUDY    70  58  65 S6        29.88F
6HR MIN TEMP:  57; 6HR MAX TEMP:  70; 6HR PCP:  0.13;

HAYWARD        CLOUDY   N/A N/A N/A S7        29.89S
6HR MIN TEMP:  58; 6HR MAX TEMP:  68;

SIREN          CLOUDY    68  57  67 S10       29.88R
CUMBERLAND     PTSUNNY   66  54  63 S13       29.89R
RICE LAKE      FAIR      70  55  58 S9        29.90R
CHETEK         FAIR      69  58  68 MISG      29.89R
LADYSMITH      CLOUDY    68  56  64 S12G17    29.92F
EAU CLAIRE     NOT AVBL
MENOMONIE      FAIR      71  57  62 SE14      29.86S
NEW RICHMOND   PTSUNNY   66  56  70 S10       29.90R
OSCEOLA        CLOUDY    69  58  68 S10       29.92R
$$

WIZ003>005-009-010-017-018-031900-
NORTH CENTRAL WISCONSIN

CITY           SKY/WX    TMP DP  RH WIND       PRES   REMARKS
MANITOWISH WTR CLOUDY    69  55  61 S14G21    29.93F
ARBOR VITAE    MOSUNNY   73  53  49 S13G21    29.94F
WOODRUFF       MOSUNNY   73  53  49 S13G21    29.94F
RHINELANDER    SUNNY     72  52  49 SW12G21   29.96F
6HR MIN TEMP:  57; 6HR MAX TEMP:  73;

EAGLE RIVER    MOSUNNY   73  49  42 S8G16     29.95F
LAND O LAKES   MOSUNNY   75  49  40 S15       29.95F
PHILLIPS       CLOUDY    68  56  64 S14       29.92F
TOMAHAWK       SUNNY     71  55  56 S6        29.96F
MEDFORD        FAIR      69  55  62 S17       29.95S
MERRILL        NOT AVBL
$$

WIZ029-030-035-036-043>047-031900-
CENTRAL WISCONSIN

CITY           SKY/WX    TMP DP  RH WIND       PRES   REMARKS
WAUSAU         MOSUNNY   73  54  51 S16       29.94F
6HR MIN TEMP:  55; 6HR MAX TEMP:  74;

MOSINEE        MOSUNNY   70  55  60 S14G22    29.98S
MARSHFIELD     FAIR      72  55  55 S14       29.95F
6HR MIN TEMP:  55; 6HR MAX TEMP:  73;

STEVENS POINT  FAIR      71  53  52 S13G18    29.97F
WAUPACA        PTSUNNY   74  53  47 SE12G17   29.99F
WAUTOMA        NOT AVBL
WISC RAPIDS    FAIR      75  53  46 S9        29.96F
6HR MIN TEMP:  57; 6HR MAX TEMP:  76;

CAMP DOUGLAS   PTSUNNY   73  61  64 SE13G22   29.94F
$$

WIZ011>013-019>022-031-037>040-048>050-031900-
NORTHEAST WISCONSIN

CITY           SKY/WX    TMP DP  RH WIND       PRES   REMARKS
ANTIGO         PTSUNNY   69  55  62 S15       29.98F
SHAWANO        MOSUNNY   74  51  43 S9        29.99F
OCONTO         SUNNY     72  54  53 S10       30.01S
STURGEON BAY   SUNNY     64  52  63 S17       30.06F
6HR MIN TEMP:  55; 6HR MAX TEMP:  64;

GREEN BAY      MOSUNNY   75  50  41 S16G22    30.00F
6HR MIN TEMP:  54; 6HR MAX TEMP:  75;

MANITOWOC      NOT AVBL
APPLETON       MOSUNNY   68  52  56 SE13G18   30.01F
CLINTONVILLE   MOSUNNY   72  50  46 S13G21    29.98F
OSHKOSH        MOSUNNY   75  53  46 SE12G21   30.00F
6HR MIN TEMP:  54; 6HR MAX TEMP:  75;

$$

WIZ032>034-041-042-053>061-031900-
SOUTHWEST WISCONSIN

CITY           SKY/WX    TMP DP  RH WIND       PRES   REMARKS
LA CROSSE      FAIR      74  57  55 S13       29.90F
6HR MIN TEMP:  61; 6HR MAX TEMP:  75;

SPARTA         FAIR      73  54  51 S13G21    29.94S
VIROQUA        FAIR      73  56  53 S18       29.94F
BOSCOBEL       FAIR      76  58  53 SE8       29.94F
6HR MIN TEMP:  58; 6HR MAX TEMP:  77;

PRAIRIE DU CHI FAIR      75  52  44 SE14      29.92S
PLATTEVILLE    PTSUNNY   74  58  57 S17       29.97S
$$

WIZ056-057-062-063-064-067-068-031900-
SOUTH CENTRAL WISCONSIN

CITY           SKY/WX    TMP DP  RH WIND       PRES   REMARKS
REEDSBURG      CLOUDY    72  58  60 S13       29.96F
BARABOO/DELLS  PTSUNNY   73  57  58 S14       29.97F
LONE ROCK      NOT AVBL
MINERAL POINT  FAIR      73  55  53 S14       29.97F
MADISON        PTSUNNY   74  55  51 S14G22    29.97F
6HR MIN TEMP:  59; 6HR MAX TEMP:  74;

MIDDLETON      FAIR      74  53  47 S13G20    29.99F
WATERTOWN      MOSUNNY   72  56  57 S9        30.01F
MONROE         FAIR      72  57  60 S13       29.99F
JANESVILLE     MOSUNNY   75  55  50 S9G16     30.00F
$$

WIZ051-052-058>065-066-070>072-031900-
SOUTHEAST WISCONSIN

CITY           SKY/WX    TMP DP  RH WIND       PRES   REMARKS
MILWAUKEE      MOSUNNY   66  51  58 SE14      30.04F
6HR MIN TEMP:  53; 6HR MAX TEMP:  67;

WAUKESHA       SUNNY     70  52  52 S9        30.04S
MILWAUKEE/TIMM SUNNY     70  46  43 E10G17    30.04F
RACINE         SUNNY     64  50  60 SE13      30.06F
6HR MIN TEMP:  56; 6HR MAX TEMP:  65;

BURLINGTON     SUNNY     71  52  51 S5        30.02F
KENOSHA        SUNNY     68  53  58 SE14      30.04F
6HR MIN TEMP:  56; 6HR MAX TEMP:  69;

FOND DU LAC    MOSUNNY   72  54  53 SE14      30.00F
6HR MIN TEMP:  56; 6HR MAX TEMP:  73;

SHEBOYGAN      SUNNY     66  53  63 S14       30.05F
6HR MIN TEMP:  50; 6HR MAX TEMP:  67;

WEST BEND      MOSUNNY   70  46  43 SE9       30.03F
JUNEAU         MOSUNNY   70  55  57 SE12G17   30.02F
$$

LSZ147-162-031900-
LAKE SUPERIOR

STATION/POSITION TIME  TEMP    WIND        PRES    WAVE
                       AIR SEA DIR/SP/G            HT/PER
                 (UTC) (F)     (DEG/KT/KT) (MB)    (FT/S)
W MID LAKE BUOY  1650   41 37   50/  6/  8   N/A     1/ 3
DEVILS ISLAND    1700   60        CALM       N/A
PORT WING        1700   49      CALM  /  2   N/A
SAXON HARBOR     1700           CALM  /  3   N/A
$$

LMZ867-665-643>646-031900-
LAKE MICHIGAN

STATION/POSITION TIME  TEMP    WIND        PRES    WAVE
                       AIR SEA DIR/SP/G            HT/PER
                 (UTC) (F)     (DEG/KT/KT) (MB)    (FT/S)
CHAMBERS ISLAND  1700   67     150/  6/ 17   N/A
N MID LAKE BUOY  1650   43 37  200/  8/  8   N/A     1/ 3
NORTHPORT PIER   1700   56     150/ 11/ 15   N/A
SISTER BAY       1603   65     190/ 19/ 22   N/A
ALGOMA LAKESHORE 1724          200/ 11/ 13   N/A
KEWAUNEE LAKESHO 1700   49     180/ 11/ 12   N/A
SHEBOYGAN LAKESH 1700   48     160/ 12/ 12   N/A
PORT WASHINGTON  1700   54     170/  4/  6   N/A
ATWATER BUOY     1700   49 48  140/ 12/ 14   N/A
MILWAUKEE LAKESH 1700   50     130/ 14/ 15   N/A
S MID LAKE BUOY  1650   45 39  120/  8/  8   N/A
KENOSHA   LAKESH 1700   53     150/  8/  9   N/A
$$

TC  - TEMPERATURE IN CELSIUS
VSB - VISIBILITY IN STATUTE MILES
WCI - WIND CHILL INDEX
HX  - HEAT INDEX




USA.gov is the U.S. government's official web portal to all federal, state and local government web resources and services.